TimeEDT,TemperatureF,Dew PointF,Humidity,Sea Level PressureIn,VisibilityMPH,Wind Direction,Wind SpeedMPH,Gust SpeedMPH,PrecipitationIn,Events,Conditions,WindDirDegrees,DateUTC
12:54 AM,48.0,42.1,80,30.35,10.0,SE,5.8,-,N/A,,Clear,130,2013-10-09 04:54:00
1:54 AM,46.9,42.1,83,30.35,10.0,SE,6.9,-,N/A,,Clear,140,2013-10-09 05:54:00
2:54 AM,46.9,41.0,80,30.35,10.0,ESE,5.8,-,N/A,,Clear,120,2013-10-09 06:54:00
3:54 AM,46.0,41.0,83,30.34,10.0,ESE,4.6,-,N/A,,Clear,120,2013-10-09 07:54:00
4:54 AM,46.9,41.0,80,30.35,10.0,SE,6.9,-,N/A,,Clear,140,2013-10-09 08:54:00
5:54 AM,46.9,39.9,77,30.36,10.0,SE,4.6,-,N/A,,Clear,140,2013-10-09 09:54:00
6:54 AM,45.0,39.9,82,30.36,10.0,SSE,4.6,-,N/A,,Partly Cloudy,150,2013-10-09 10:54:00
7:54 AM,46.0,39.9,79,30.37,10.0,SSE,4.6,-,N/A,,Partly Cloudy,150,2013-10-09 11:54:00
8:54 AM,48.9,41.0,74,30.39,10.0,SSE,4.6,-,N/A,,Partly Cloudy,160,2013-10-09 12:54:00
9:54 AM,53.1,43.0,69,30.40,10.0,Calm,Calm,-,N/A,,Partly Cloudy,0,2013-10-09 13:54:00
10:54 AM,57.9,44.1,60,30.40,10.0,Calm,Calm,-,N/A,,Partly Cloudy,0,2013-10-09 14:54:00
11:54 AM,62.1,43.0,50,30.39,10.0,Calm,Calm,-,N/A,,Partly Cloudy,0,2013-10-09 15:54:00
12:54 PM,64.9,42.1,43,30.37,10.0,Calm,Calm,-,N/A,,Partly Cloudy,0,2013-10-09 16:54:00
1:54 PM,66.0,41.0,40,30.34,10.0,Calm,Calm,-,N/A,,Partly Cloudy,0,2013-10-09 17:54:00
2:54 PM,66.9,42.1,40,30.31,10.0,ESE,3.5,-,N/A,,Scattered Clouds,110,2013-10-09 18:54:00
3:54 PM,69.1,42.1,38,30.30,10.0,NNE,5.8,-,N/A,,Mostly Cloudy,30,2013-10-09 19:54:00
4:54 PM,69.1,44.1,40,30.29,10.0,Calm,Calm,-,N/A,,Mostly Cloudy,0,2013-10-09 20:54:00
5:54 PM,66.9,46.0,47,30.29,10.0,ENE,6.9,-,N/A,,Mostly Cloudy,60,2013-10-09 21:54:00
6:54 PM,63.0,45.0,52,30.28,10.0,NNE,4.6,-,N/A,,Mostly Cloudy,30,2013-10-09 22:54:00
7:54 PM,60.1,46.0,60,30.29,10.0,East,4.6,-,N/A,,Mostly Cloudy,90,2013-10-09 23:54:00
8:54 PM,59.0,45.0,60,30.29,10.0,ENE,3.5,-,N/A,,Mostly Cloudy,60,2013-10-10 00:54:00
9:54 PM,55.0,46.0,72,30.29,10.0,North,3.5,-,N/A,,Mostly Cloudy,360,2013-10-10 01:54:00
10:54 PM,55.0,45.0,69,30.28,10.0,ESE,5.8,-,N/A,,Mostly Cloudy,120,2013-10-10 02:54:00
11:54 PM,54.0,43.0,66,30.27,10.0,SE,5.8,-,N/A,,Mostly Cloudy,130,2013-10-10 03:54:00